Terminal Aerodrome Forecast
Issued by NWS Wilmington, OH

Current Version | Previous Version | Text Only | Print | Product List | Glossary Off
Versions: 1 2 3 4 5 6 7 8 9 10 11 12 13 14 15 16 17 18 19 20 21 22 23 24 25

000
FTUS41 KILN 270901 AAA
TAFILN
TAF AMD
KILN 270901Z 2709/2806 10003KT P6SM SCT120 OVC250
     FM271400 14005KT P6SM SCT040 OVC250
     FM280000 VRB03KT P6SM BKN250=

USA.gov is the U.S. government's official web portal to all federal, state and local government web resources and services.